Atyray, Kazakhstan

6:11 PM AQTT on December 18, 2014 (GMT +0500)
Atyrau | Change Station
CLOSE
Current Station
Airport
Location: Atyrau,
Elevation: -72 ft
Nearby Weather Stations

Elev -72 ft 47.12 °N, 51.83 °E | Updated 11 minutes ago

Overcast
Overcast
32 °F
Feels Like 28 °F
N
4
Wind Variable Wind from SE

Today
High -- | Low -- °F
--% Chance of Precip.
Yesterday
High -- | Low -- °F
Precip. -- in
9:13 AM 5:43 PM
Waning Crescent, 14% visible
Pressure 30.27 in
Visibility -9999.0 miles
Clouds Overcast 600 ft
Windchill 28 °F
Dew Point 32 °F
Humidity 100%
Rainfall 0.00 in
Snow Depth Not available.
UV 0 out of 12
Pollen Not available.
Air Quality Not available.
Flu Activity Not available.
METAR UATG 181300Z 13002MPS 3400 BR OVC006 M00/M00 Q1025 R14/32//52 TEMPO 0400 FZFG VV001 RMK QBB180 QFE770/1027

More Conditions Fewer Conditions

Pressure 30.27 in
Visibility -9999.0 miles
Clouds Overcast 600 ft
Windchill 28 °F
Dew Point 32 °F
Humidity 100%
Rainfall 0.00 in
Snow Depth Not available.
UV 0 out of 12
Pollen Not available.
Air Quality Not available.
Flu Activity Not available.
METAR UATG 181300Z 13002MPS 3400 BR OVC006 M00/M00 Q1025 R14/32//52 TEMPO 0400 FZFG VV001 RMK QBB180 QFE770/1027

More Conditions Fewer Conditions

10-Day Weather Forecast

Almanac

Astronomy

Dec. 18, 2014 Rise Set
Actual Time
Civil Twilight
Nautical Twilight
Astronomical Twilight
Moon
Length of Visible Light
Length of Day
Tomorrow will be .
, % of the Moon is Illuminated

Today's Extremes

Country Highs Country Lows

Community

WunderPhotos

Upload Photos

1,778,925 photos uploaded!

WunderBlogs® & News

Nearby

Air Quality

  Air Quality AQ Index Pollutant
Not available.

Snow Depth

Station Depth Elevation

Earthquake Activity

City Distance Mag. Time & Date
Minimum magnitude displayed is 2.5.

Coastal Water Temperatures

Place Temperature

Nearby Weather Stations